Location: Pulvis Stellarum Observatory
(41.6962°N, 71.4263°W)
Time: 03:21:29
(UTC-04:00)

Cosmos 1758 - Visible Passes

Search period start: 31 July 2015 00:00
Search period end: 10 August 2015 00:00
Orbit: 546 x 568 km, 82.5° (Epoch: 29 July)

Date Brightness Start Highest point End Pass type
(mag) Time Alt. Az. Time Alt. Az. Time Alt. Az.
31 Jul 5.8 02:12:40 14° E 02:13:13 15° E 02:15:36 10° NE visible
31 Jul 3.9 03:48:33 35° WSW 03:49:29 41° WNW 03:53:25 10° N visible
01 Aug 5.7 02:10:50 17° E 02:11:03 17° E 02:13:47 10° NE visible
01 Aug 4.1 03:46:43 33° W 03:47:23 35° WNW 03:51:12 10° N visible
02 Aug 5.5 02:08:58 19° E 02:08:58 19° E 02:11:54 10° NE visible
02 Aug 4.3 03:44:51 30° W 03:45:17 31° WNW 03:48:57 10° NNW visible
03 Aug 5.4 02:07:06 22° E 02:07:06 22° E 02:09:57 10° NE visible
03 Aug 4.6 03:42:58 27° W 03:43:11 27° WNW 03:46:42 10° NNW visible
04 Aug 5.3 02:05:12 25° ENE 02:05:12 25° ENE 02:07:59 10° NNE visible
04 Aug 4.8 03:41:04 23° WNW 03:41:05 23° WNW 03:44:24 10° NNW visible
05 Aug 5.2 02:03:17 27° ENE 02:03:17 27° ENE 02:05:58 10° NNE visible
05 Aug 5.0 03:39:09 20° WNW 03:39:09 20° WNW 03:42:05 10° NNW visible
06 Aug 5.2 02:01:21 28° ENE 02:01:21 28° ENE 02:03:56 10° NNE visible
06 Aug 5.3 03:37:14 18° WNW 03:37:14 18° WNW 03:39:44 10° NNW visible
07 Aug 5.1 01:59:24 29° NE 01:59:24 29° NE 02:01:53 10° NNE visible
07 Aug 5.5 03:35:17 15° WNW 03:35:17 15° WNW 03:37:18 10° NNW visible
08 Aug 5.2 01:57:27 30° NE 01:57:27 30° NE 01:59:48 10° NNE visible
08 Aug 5.6 03:33:19 13° WNW 03:33:19 13° WNW 03:34:49 10° NW visible
09 Aug 5.2 01:55:28 29° NNE 01:55:28 29° NNE 01:57:41 10° NNE visible
09 Aug 5.8 03:31:20 11° WNW 03:31:20 11° WNW 03:32:12 10° NW visible
